Regional Weather Roundup
Issued by NWS

Home | Current Version | Previous Version | Text Only | Print | Product List | Glossary Off
Versions: 1 2 3 4 5 6 7 8 9 10 11 12 13 14 15 16 17 18 19 20 21 22 23 24 25 26 27 28 29 30 31 32 33 34 35 36 37 38 39 40 41 42 43 44 45 46 47 48 49 50

000
ASUS45 KABQ 262310
RWRNM
NEW MEXICO REGIONAL WEATHER ROUNDUP
NATIONAL WEATHER SERVICE ALBUQUERQUE NM
500 PM MDT TUE JUL 26 2016

NOTE: "FAIR" MEANS FEW OR NO CLOUDS BELOW 12,000 FEET AGL WITH NO
       SIGNIFICANT WEATHER OR OBSTRUCTIONS TO VISION.

      THIS PRODUCT IS RELEASED AS TWO VERSIONS.  ONE VERSION NEAR
      THE TOP OF THE HOUR CONTAINING PRELIMINARY DATA FROM ALBUQUERQUE
      AND OTHER STATIONS.  A FINAL VERSION WITH ADDITIONAL DATA IS
      ISSUED ABOUT 10 MINUTES AFTER THE HOUR.

NMZ501-503-504-510>518-270000-
NORTHWEST PLATEAU/NORTHCENTRAL MOUNTAINS

CITY           SKY/WX    TMP DP  RH WIND       PRES   REMARKS
FARMINGTON     FAIR      92  43  18 VRB6      30.10F
LOS ALAMOS     FAIR      76  46  33 W10       30.28S
SANTA FE       PTSUNNY   83  45  26 NW6       30.19S THUNDER
TAOS           CLOUDY    79  41  25 S20G28    30.31R
ANGEL FIRE     FAIR      64  52  67 CALM      30.42F

$$
NMZ402-403-502-505>509-270000-
WESTCENTRAL MOUNTAINS/SOUTHWEST MOUNTAINS

CITY           SKY/WX    TMP DP  RH WIND       PRES   REMARKS
GALLUP         FAIR      85  46  25 NE9       30.23F
GRANTS         FAIR      82  48  30 N6        30.24F
SILVER CITY    PTSUNNY   83  56  39 N28       30.12S

$$
NMZ407-409-411-412-270000-
SOUTHERN DESERTS

CITY           SKY/WX    TMP DP  RH WIND       PRES   REMARKS
LORDSBURG      FAIR      91  52  25 SW13      30.01S
DEMING         FAIR      95  50  21 S5        30.00F
LAS CRUCES     FAIR      93  47  20 E6        30.03F
HOLLOMAN AFB   FAIR      94  53  24 NW2       29.99F
ALAMOGORDO     FAIR      91  48  22 CALM      30.02F
T OR C         FAIR      85  55  35 W12       30.08F

$$
NMZ519>523-270000-
CENTRAL VALLEYS/CENTRAL HIGHLANDS

CITY           SKY/WX    TMP DP  RH WIND       PRES   REMARKS
ALBUQUERQUE    PTSUNNY   92  49  22 VRB3      30.09F
DOUBLE EAGLE   PTSUNNY   91  48  22 VRB5      30.14F
MORIARTY ARPT  PTSUNNY   86  44  23 W6        30.17F
CLINES CORNERS FAIR      84  48  28 MISG      30.24F
BELEN          CLOUDY    91  46  20 CALM      30.08F
SOCORRO        FAIR      89  50  26 SW8       30.07F

$$
NMZ524>526-539-540-270000-
SOUTHCENTRAL MOUNTAINS

CITY           SKY/WX    TMP DP  RH WIND       PRES   REMARKS
RUIDOSO          N/A     77  52  41 E5        30.26F

$$
NMZ527>531-270000-
NORTHEAST HIGHLANDS/NORTHEAST PLAINS

CITY           SKY/WX    TMP DP  RH WIND       PRES   REMARKS
LAS VEGAS      LGT RAIN  75  52  44 VRB3      30.26R
RATON          FAIR      78  44  29 E8        30.19S
CLAYTON        FAIR      91  46  21 SE7       30.11S

$$
NMZ532>537-270000-
EASTCENTRAL PLAINS

CITY           SKY/WX    TMP DP  RH WIND       PRES   REMARKS
TUCUMCARI      FAIR      94  52  24 MISG      30.02S
CANNON AFB     PTSUNNY   87  57  35 VRB2      30.07S
CLOVIS AIRPORT FAIR      90  55  31 SE8       30.07S

$$
NMZ028-029-538-270000-
SOUTHEAST PLAINS

CITY           SKY/WX    TMP DP  RH WIND       PRES   REMARKS
ROSWELL        FAIR      89  57  33 W8        30.00F
ARTESIA        FAIR      88  57  35 W15       30.00F
CARLSBAD       TSTM      74  66  76 W15G26    30.02R
HOBBS          SUNNY     79  66  65 S8        30.04F


$$




USA.gov is the U.S. government's official web portal to all federal, state and local government web resources and services.